{"data":{"norad_id":51799,"epoch":"2026-09-20T01:42:56.454336Z","epoch_age_seconds":88614,"freshness":"FRESH","line1":"1 51799U 22017AH  26263.07148674  .00000120  00000+0  14684-4 0  9998","line2":"2 51799  53.1593 180.0658 0001157  93.2050 266.9085 15.34390585253492","mean_motion":15.34390585,"eccentricity":0.0001157,"inclination_deg":53.1593,"raan_deg":180.0658,"arg_perigee_deg":93.205,"mean_anomaly_deg":266.9085,"bstar":1.4684e-5,"rev_number":25349,"period_min":93.848333929917,"perigee_km":461.93973526083,"apogee_km":463.5227121678,"semimajor_km":6840.8682237143,"source":"CELESTRAK","updated_at":"2026-09-20T09:00:39.941527Z"}}